Regional Weather Roundup
Issued by NWS Sterling, VA

Home | Current Version | Previous Version | Text Only | Print | Product List | Glossary Off
Versions: 1 2 3 4 5 6 7 8 9 10 11 12 13 14 15 16 17 18 19 20 21 22 23 24 25 26 27

000
ASUS41 KLWX 231011
RWRLWX

REGIONAL WEATHER ROUNDUP
NATIONAL WEATHER SERVICE BALTIMORE MD/WASHINGTON DC
600 AM EDT SAT SEP 23 2017

Note: "FAIR" indicates few or no clouds below 12,000 feet
with no significant weather and/or obstructions to visibility.
 TC=TEMPERATURE CELSIUS

 * =Non NWS site. Station does not report precipitation (e.g. rain,
    snow, etc.), thunder, or fog.

DCZ001-MDZ009-015-VAZ040>042-051-053>054-231100-
WASHINGTON METRO

CITY           SKY/WX    TMP DP  RH WIND       PRES   REMARKS
WASHINGTON NAT PTCLDY    65  59  81 N7        30.06R
DULLES         PTCLDY    60  60 100 CALM      30.07R
ANDREWS AFB    PTCLDY    61  53  76 N7        30.05R
FT BELVOIR     PTCLDY    60  59  96 CALM      30.06R
QUANTICO         N/A     65  64  97 NW6       30.06R
COLLEGE PARK*  CLEAR     58  58  98 CALM      30.05R
LEESBURG*      PTCLDY    61  61 100 CALM      30.08R
MANASSAS*      CLOUDY    55  55 100 CALM      30.08R FOG
GAITHERSBURG*  CLEAR     58  56  93 CALM      30.08R

$$

MDZ006>007-011-014-231100-
BALTIMORE METRO

CITY           SKY/WX    TMP DP  RH WIND       PRES   REMARKS
BWI AIRPORT    PTCLDY    61  57  87 CALM      30.05R
MD SCIENCE CTR   N/A     70  53  54 MISG      30.05R
MARTIN STATE   CLEAR     64  59  82 CALM      30.05R
ANNAPOLIS      CLEAR     68  64  87 W3        30.04R
FORT MEADE*    CLEAR     55  55 100 CALM      30.08R

$$

MDZ012-015-019>023-231100-
MARYLAND EASTERN SHORE

CITY           SKY/WX    TMP DP  RH WIND       PRES   REMARKS
OCEAN CITY     CLEAR     63  62  97 NW3       30.00R
SALISBURY      CLEAR     63  63 100 CALM      30.01R
CAMBRIDGE*     CLEAR     63  61  94 CALM      30.02R
EASTON*        CLEAR     64  59  82 N3        30.07R

$$

MDZ017>025-231100-
SOUTHERN MARYLAND

CITY           SKY/WX    TMP DP  RH WIND       PRES   REMARKS
PATUXENT RIVER CLEAR     66  63  90 N5        30.02R
ST INIGOES     CLEAR     62  61  96 CALM      30.02R
LEONARDTOWN*   CLEAR     63  61  94 CALM      30.04S

$$

MDZ003>005-231100-
NORTH CENTRAL MARYLAND

CITY           SKY/WX    TMP DP  RH WIND       PRES   REMARKS
FREDERICK*     FOG       55  55 100 CALM      30.10S VSB 1/2
HAGERSTOWN APT CLEAR     59  55  87 NW5       30.08R
WESTMINSTER*   CLEAR     61  55  82 CALM      30.07S

$$

MDZ501>502-231100-
WESTERN MARYLAND

CITY           SKY/WX    TMP DP  RH WIND       PRES   REMARKS
OAKLAND*       CLEAR     59  46  63 E6        30.14S
CUMBERLAND*    CLEAR     55  55 100 CALM      30.15R

$$

VAZ025>031-231100-
SHENANDOAH VALLEY

CITY           SKY/WX    TMP DP  RH WIND       PRES   REMARKS
WINCHESTER*      N/A     54  54 100 CALM      30.09S FOG
FRONT ROYAL*   PTCLDY    57  57 100 CALM      30.09R
LURAY*         PTCLDY    55  55 100 CALM      30.11R
NEW MARKET*    PTCLDY    55  54  96 CALM      30.10R
STAUNTON*      FOG       56  56 100 CALM      30.13R VSB 1/4
WAYNESBORO*    CLEAR     57  57 100 CALM      30.11R

$$

WVZ021-048>050-054>055-231100-
EASTERN WEST VIRGINIA PANHANDLE

CITY           SKY/WX    TMP DP  RH WIND       PRES   REMARKS
MARTINSBURG    CLEAR     52  51  97 SW3       30.08R
PETERSBURG*      N/A     58  57  99 CALM      30.12R FOG

$$

VAZ036>039-050-231100-
CENTRAL FOOTHILLS

CITY           SKY/WX    TMP DP  RH WIND       PRES   REMARKS
CHARLOTTESVILL PTCLDY    63  61  93 N3        30.07R FOG
CULPEPER*      CLOUDY    59  59 100 N3        30.08R FOG
ORANGE*        CLEAR     59  59 100 CALM      30.07R
GORDONSVILLE*  FOG       59  59 100 CALM      30.06R VSB 3/4
WARRENTON*     FOG       53  51  91 CALM      30.07R VSB 1/4

$$

VAZ055>057-231100-
NORTH AND CENTRAL PIEDMONT

CITY           SKY/WX    TMP DP  RH WIND       PRES   REMARKS
FREDERICKSBRG* CLEAR     61  61 100 NW3       30.05R
STAFFORD*      CLEAR     57  57 100 N5        30.10R FOG

$$

NCZ024-NYZ072-PAZ021-071-VAZ022-071-231100-
OTHER REGIONAL OBSERVATIONS

CITY           SKY/WX    TMP DP  RH WIND       PRES   REMARKS
NEW YORK CITY  CLEAR     69  53  56 CALM      30.03R
PHILADELPHIA   PTCLDY    68  51  54 N6        30.03R
PITTSBURGH     CLEAR     59  56  89 CALM      30.11R
ROANOKE        CLEAR     63  61  93 CALM      30.10S
RICHMOND       CLEAR     63  63 100 NW3       30.03R
RALEIGH        PTCLDY    62  62 100 CALM      30.04R FOG

$$

ANZ530>537-231100-
MARINE OBSERVATIONS

STATION/POSITION TIME  TEMP    WIND        PRES
                       AIR SEA DIR/SP/G
                 (UTC) (F)     (DEG/KT/KT) (MB)
THOMAS PT LIGHT  1000   69 76  320/  8/  9   N/A
BALT KEY BRIDGE  0948   71     310/  6/  7 1017.2R
COVE POINT       0948   74      20/  8/ 11 1017.4R
LEWISETTA        0948   72 77  360/  3/  5 1016.5R
SOLOMONS ISLAND  0942   70 76  330/  4/  5 1016.3R
PINEY POINT      0948          350/  7/  8   N/A

$$





USA.gov is the U.S. government's official web portal to all federal, state and local government web resources and services.